Terminal Aerodrome Forecast
Issued by NWS

Home | Current Version | Previous Version | Text Only | Print | Product List | Glossary On
Versions: 1 2 3 4 5 6 7 8 9 10 11 12 13 14 15 16 17
000
FTUS45 KABQ 191400 AAA
TAFTCC
TAF AMD
KTCC 191425Z 1914/2012 36005KT 6SM BR BKN008
      TEMPO 1914/1916 3SM BR SCT008
     FM191600 VRB04KT P6SM SKC
     FM200100 25006KT P6SM SKC=

USA.gov is the U.S. government's official web portal to all federal, state and local government web resources and services.